User: anonymous   Login
Location: Melbourne
(37.8170°S, 144.9670°E)
Time: 01:09:23
(UTC+11:00)
Language:

ADEOS Rocket - Orbit

View from above orbital plane
View from above orbital plane
View from above satellite
View from above satellite

Ground track
Ground track

The orbit data is extracted from the following two-line orbital elements,

1 24279U 96046C   16339.03810137  .00000056  00000-0  11306-3 0  9999
2 24279  98.7262 301.3638 0300954  66.2910 336.2207 13.47067919997970
Epoch (UTC): 04 December 2016 00:54:51
Eccentricity: 0.0300954
inclination: 98.7262°
perigee height: 858 km
apogee height: 1307 km
right ascension of ascending node: 301.3638°
argument of perigee: 66.2910°
revolutions per day: 13.47067919
mean anomaly at epoch: 336.2207°
orbit number at epoch: 99797

The dashed part of the orbit path shows where the satellite is in the earth's shadow,  

DLR